Flag for Germany Weather past 2 weeks in Meiningen, Thuringia, Germany

Now
58 °F

Overcast.


Feels Like: 58 °F
Forecast: 49 / 69 °F
Wind: 1 mph from South

Location: Meiningen

Current Time: Sep 30, 2014 at 8:29:28 AM

Latest Report: Sep 30, 2014 at 8:00 AM


Visibility: 11 mi

Pressure: 30.25 "Hg

Humidity: 92%

Dew point: 56 °F

Location of MeiningenLocation

Historic Weather in Meiningen — Graph

°F

Meiningen temperature yesterday

Maximum temperature yesterday: 69 °F (at 5:00 PM)
Minimum temperature yesterday: 50 °F (at 3:00 AM)
Average temperature yesterday: 58 °F

Past Weeks' High & Low Weather Summary

 TemperatureHumidityPressure
High71 °F (Sep 17, 4:00 PM)99% (Sep 20, 4:00 AM)30.39 "Hg (Sep 20, 4:00 AM)
Low36 °F (Sep 24, 7:00 AM)53% (Sep 17, 5:00 PM)29.87 "Hg (Sep 24, 5:00 PM)
Average56 °F84%30.08 "Hg
* Reported Sep 15 7:00 AM — Sep 30 7:00 AM, Meiningen, Weather by CustomWeather, © 2014

Note: Actual official high and low records may vary slightly from our data, if they occured in-between our weather recording intervals... More about our weather records

Advertising

Meiningen weather history for previous 24 hours

 ConditionsComfort  
Time TempWeatherWind HumidityBarometerVisibility
7:00 AM
Sep 30
57 °FOvercast.2 mph96%30.25 "Hg5 mi
6:00 AM57 °FOvercast.2 mph96%30.25 "Hg6 mi
4:00 AM57 °FOvercast.3 mph96%30.24 "Hg5 mi
3:00 AM58 °FOvercast.1 mph94%30.24 "Hg7 mi
2:00 AM58 °FOvercast.1 mph92%30.24 "Hg7 mi
1:00 AM59 °FDrizzle. Overcast.3 mph94%30.26 "Hg6 mi
12:00 AM58 °FOvercast.1 mph93%30.25 "Hg6 mi
11:00 PM
Sep 29
59 °FOvercast.2 mph93%30.25 "Hg7 mi
10:00 PM62 °FOvercast.2 mph81%30.24 "Hg15 mi
9:00 PM63 °FPassing clouds.1 mph72%30.23 "Hg16 mi
8:00 PM64 °FPassing clouds.1 mph70%30.23 "Hg19 mi
7:00 PM66 °FPartly sunny.1 mph66%30.22 "Hg19 mi
6:00 PM68 °FScattered clouds.1 mph70%30.21 "Hg19 mi
5:00 PM69 °FScattered clouds.3 mph66%30.20 "Hg19 mi
4:00 PM68 °FPartly sunny.3 mph68%30.21 "Hg19 mi
3:00 PM66 °FPartly sunny.6 mph71%30.22 "Hg19 mi
2:00 PM65 °FPartly sunny.5 mph75%30.24 "Hg11 mi
1:00 PM62 °FPartly sunny.5 mph91%30.25 "Hg9 mi
12:00 PM57 °FFog.3 mph98%30.28 "Hg2 mi
11:00 AM54 °FFog.3 mph99%30.29 "Hg0 mi
10:00 AM53 °FFog.3 mph99%30.30 "Hg0 mi
9:00 AM51 °FFog.3 mph99%30.30 "Hg0 mi
8:00 AM51 °FFog.3 mph98%30.29 "Hg0 mi
Weather by CustomWeather, © 2014

See weather overviewHow to use our weather pages